[[{"header":{"parameterUnit":"m.s-1","parameterCategory":2,"la1":30.2991,"la2":30.254,"lo1":-89.0895,"lo2":-89.0444,"dy":0.0017,"dx":0.0017,"nx":28,"ny":28,"refTime":"2024-02-12T03:00:00:Z","depth":"0","parameterNumber":2,"parameterNumberName":"U-component_of_CURRENTS"},"data":[0,0,0,0,0,0,0,0,0,0,0,0,0,0,0,0,0,0,0,0,0,0,0,0,0,0,0,0,0,0,0,0,0,0,0,0,0,0,0,0,0,0,0,0,0,0,0,0,0,0,0,0,0,0,0,0,0,0,0.1918,0.1919,0,0.1916,0.1916,0.1916,0.1864,0.1863,0.1862,0.1861,0.1835,0.1835,0.1835,0,0,0,0,0,0,0,0,0,0,0,0,0,0.1872,0.1873,0.1918,0.1919,0.1919,0.1917,0.1916,0.1916,0.1864,0.1863,0.1862,0.186,0.1834,0.1835,0.1835,0,0,0,0,0,0,0,0,0,0,0,0,0,0.1881,0.1874,0.1918,0.1895,0.1893,0.1917,0.1916,0.1916,0.1865,0.1863,0.1861,0.186,0.1834,0.1835,0.1835,0.1871,0,0,0.1837,0.1837,0,0,0,0,0,0,0,0,0.1881,0.1883,0.1898,0.1897,0.1894,0.1891,0.189,0.1901,0.1865,0.1873,0.1861,0.1859,0.1854,0.1853,0.1853,0.187,0.1868,0.1837,0.1837,0.1837,0.1837,0,0,0,0,0,0,0,0.188,0.1882,0.1915,0.1899,0.1896,0.1883,0.1882,0.1892,0.187,0.1872,0.1869,0.1873,0.1852,0.1852,0.1852,0.1868,0.1837,0.1837,0.1837,0.1838,0.1939,0.1941,0,0,0,0,0,0,0.1888,0.1882,0.1915,0.1915,0.1886,0.1885,0.1884,0.1892,0.187,0.1867,0.1875,0.1871,0.1852,0.1851,0.1851,0.1914,0.1837,0.1838,0.1838,0.1936,0.1939,0.1942,0,0,0,0,0,0,0.1887,0.1891,0.1915,0.19,0.1903,0.1888,0.1897,0.1893,0.1895,0.1873,0.1868,0.1882,0.1851,0.185,0.1873,0.1911,0.1838,0.1838,0.1933,0.1937,0.1941,0.2025,0,0,0,0,0,0,0.1886,0.1891,0.1904,0.1901,0.1904,0.1943,0.1899,0.1894,0.1902,0.1897,0.1879,0.1874,0.185,0.1873,0.1873,0.191,0.1839,0.193,0.1935,0.1939,0.2019,0.2031,0.2042,0,0,0,0,0,0.1884,0.1904,0.1905,0.1909,0.1921,0.1945,0.1946,0.1927,0.1904,0.192,0.1907,0.1875,0.1902,0.1875,0.1875,0.1913,0.1928,0.1934,0.1939,0.2014,0.2029,0.2041,0,0,0,0,0,0,0.1887,0.1901,0.1901,0.1924,0.1943,0.1937,0.1951,0.194,0.1942,0.1936,0.1904,0.1901,0.1934,0.1921,0.1892,0.1958,0.1911,0.1917,0.1969,0.1982,0.1993,0.201,0.1839,0,0,0,0,0,0.1899,0.192,0.1932,0.1955,0.1967,0.1964,0.1972,0.1964,0.1964,0.1962,0.1949,0.1945,0.196,0.1966,0.1971,0.2011,0.2021,0.2038,0.2049,0.2058,0.2074,0.2109,0.2124,0.196,0.196,0.1959,0,0,0.1904,0.1919,0.1929,0.1959,0.1969,0.1989,0.1964,0.1987,0.2001,0.1963,0.1979,0.1982,0.198,0.2018,0.2033,0.201,0.212,0.2065,0.2073,0.2084,0.2116,0.2132,0.2146,0.1963,0.1963,0.1962,0,0,0.1919,0.1946,0.1961,0.1983,0.2011,0.2019,0.2031,0.2039,0.2042,0.2069,0.2048,0.2084,0.2086,0.2106,0.2113,0.2195,0.2175,0.2192,0.2263,0.2296,0.231,0.2322,0.2392,0.2409,0.2199,0.2199,0.2199,0,0.1923,0.1947,0.1972,0.1993,0.2013,0.2035,0.2054,0.2074,0.2086,0.2101,0.2083,0.2124,0.2133,0.2189,0.2229,0.2221,0.2242,0.2207,0.231,0.2321,0.2332,0.24,0.2418,0.2204,0.2203,0.2203,0.2202,0,0.1943,0.1966,0.1985,0.202,0.2049,0.2079,0.2111,0.2138,0.2148,0.2162,0.2215,0.2235,0.2254,0.2281,0.2286,0.2374,0.2368,0.2316,0.2272,0.2354,0.2421,0.2439,0.2211,0.2209,0.2208,0.2206,0,0,0.1928,0.1984,0.1988,0.2007,0.2066,0.2088,0.2138,0.2187,0.2223,0.2249,0.2295,0.2357,0.2366,0.2379,0.2392,0.2453,0.2578,0.2433,0.2432,0.2498,0.2684,0.2671,0.2688,0.2532,0.2535,0.2537,0.2713,0,0.1933,0.1966,0.2001,0.2043,0.2064,0.2114,0.216,0.2211,0.2261,0.2319,0.2363,0.2414,0.2401,0.2431,0.2486,0.2554,0.2622,0.2538,0.26,0.2603,0.2575,0.2706,0.2667,0.2819,0.273,0.2733,0.2735,0,0.1928,0.1956,0.1987,0.205,0.2067,0.2102,0.2187,0.2233,0.2331,0.2374,0.243,0.2457,0.2566,0.2533,0.2672,0.2614,0.2666,0.2716,0.2721,0.2689,0.2621,0.2717,0.2853,0.2817,0.2761,0.2759,0.2757,0,0.1884,0.1942,0.1967,0.1988,0.2066,0.2096,0.2148,0.2243,0.2296,0.2418,0.2472,0.2558,0.2622,0.2685,0.2778,0.2733,0.2937,0.2865,0.2904,0.2904,0.2876,0.2868,0.2977,0.2966,0.2965,0.2965,0.2964,0,0.1867,0.1883,0.1948,0.1961,0.2012,0.2073,0.2143,0.2219,0.2326,0.2406,0.249,0.2571,0.2664,0.2768,0.2826,0.2939,0.2959,0.2964,0.2958,0.2908,0.2902,0.2868,0.2824,0.2971,0.297,0.2968,0.2967,0,0.1807,0.1847,0.1879,0.1958,0.1988,0.2023,0.213,0.2181,0.2299,0.241,0.245,0.2612,0.2763,0.2853,0.3007,0.301,0.3049,0.3135,0.3097,0.3082,0.3046,0.3007,0.2952,0.2859,0.3216,0.3216,0.3217,0,0.1776,0.1784,0.1863,0.1888,0.1926,0.1989,0.2034,0.2156,0.2225,0.2429,0.2483,0.2667,0.2788,0.3019,0.3104,0.3223,0.3102,0.3226,0.3122,0.3088,0.3041,0.2858,0.2769,0.3144,0.3144,0.3144,0.3145,0,0.1724,0.1751,0.1783,0.1836,0.1882,0.1938,0.2022,0.2068,0.2221,0.2328,0.2497,0.2615,0.2869,0.3002,0.3167,0.3217,0.3088,0.3227,0.32,0.3022,0.2824,0.2715,0.3006,0.3145,0.3145,0.3145,0.3145,0.3145,0.1681,0.1694,0.1736,0.1786,0.1833,0.1882,0.1909,0.2009,0.211,0.2269,0.2432,0.2605,0.2874,0.3113,0.3136,0.3201,0.3095,0.316,0.3134,0.2965,0.2811,0.3123,0.3226,0.3227,0.3227,0.3227,0.3228,0,0.1625,0.165,0.1685,0.1737,0.1755,0.1812,0.1892,0.191,0.1999,0.2203,0.2346,0.2641,0.2826,0.3007,0.3204,0.3151,0.2953,0.3084,0.2844,0.277,0.3097,0.3031,0.3086,0.3086,0.3086,0.3086,0.3086,0.3086,0.1595,0.1604,0.163,0.1648,0.1679,0.1686,0.1715,0.1768,0.1898,0.2086,0.2277,0.2455,0.2826,0.3118,0.3184,0.3113,0.2868,0.2763,0.2687,0.2978,0.2982,0.2985,0.2915,0.2945,0.2945,0.2259,0.2255,0.2251]},{"header":{"parameterUnit":"m.s-1","parameterCategory":2,"la1":30.2991,"la2":30.254,"lo1":-89.0895,"lo2":-89.0444,"dy":0.0017,"dx":0.0017,"nx":28,"ny":28,"refTime":"2024-02-12T03:00:00:Z","depth":"0","parameterNumber":3,"parameterNumberName":"V-component_of_CURRENTS"},"data":[0,0,0,0,0,0,0,0,0,0,0,0,0,0,0,0,0,0,0,0,0,0,0,0,0,0,0,0,0,0,0,0,0,0,0,0,0,0,0,0,0,0,0,0,0,0,0,0,0,0,0,0,0,0,0,0,0,0,-0.0136,-0.0137,0,-0.023,-0.0231,-0.0232,-0.029,-0.0291,-0.0291,-0.0291,-0.0405,-0.0408,-0.0411,0,0,0,0,0,0,0,0,0,0,0,0,0,-0.0039,-0.004,-0.0136,-0.0137,-0.0138,-0.023,-0.0231,-0.0233,-0.029,-0.0291,-0.0291,-0.0291,-0.0404,-0.0408,-0.0411,0,0,0,0,0,0,0,0,0,0,0,0,0,-0.0102,-0.0041,-0.0136,-0.0178,-0.0183,-0.023,-0.0231,-0.0233,-0.029,-0.0291,-0.0291,-0.0292,-0.0403,-0.0407,-0.0411,-0.0428,0,0,-0.0424,-0.0426,0,0,0,0,0,0,0,0,-0.0098,-0.0105,-0.0171,-0.0175,-0.0181,-0.0249,-0.0239,-0.0299,-0.029,-0.0249,-0.0291,-0.0292,-0.0355,-0.0363,-0.0379,-0.0433,-0.0438,-0.0424,-0.0427,-0.0429,-0.043,0,0,0,0,0,0,0,-0.0094,-0.0102,-0.0173,-0.0172,-0.0178,-0.0204,-0.0213,-0.0251,-0.0299,-0.0253,-0.0257,-0.0268,-0.0358,-0.0375,-0.0382,-0.044,-0.0424,-0.0428,-0.0431,-0.0432,-0.0481,-0.048,0,0,0,0,0,0,-0.008,-0.0098,-0.017,-0.0176,-0.014,-0.0205,-0.0215,-0.0227,-0.0298,-0.0309,-0.0267,-0.027,-0.0368,-0.0377,-0.0387,-0.0374,-0.0429,-0.0433,-0.0435,-0.0482,-0.0481,-0.0479,0,0,0,0,0,0,-0.0078,-0.0086,-0.0167,-0.0139,-0.0151,-0.0206,-0.0218,-0.0228,-0.0245,-0.0309,-0.032,-0.0274,-0.0368,-0.0381,-0.0417,-0.038,-0.0434,-0.0438,-0.0484,-0.0482,-0.048,-0.0372,0,0,0,0,0,0,-0.0074,-0.0084,-0.0085,-0.0138,-0.0152,-0.0185,-0.0218,-0.023,-0.0251,-0.0255,-0.0318,-0.0329,-0.037,-0.041,-0.0421,-0.0387,-0.0441,-0.0485,-0.0483,-0.0481,-0.0377,-0.0367,-0.0358,0,0,0,0,0,-0.0071,-0.0068,-0.0084,-0.0093,-0.0152,-0.0185,-0.0194,-0.0235,-0.025,-0.0253,-0.0296,-0.0327,-0.0403,-0.0413,-0.0426,-0.0392,-0.0486,-0.0483,-0.0481,-0.0381,-0.0369,-0.0358,0,0,0,0,0,0,-0.0024,-0.0075,-0.0094,-0.0107,-0.0139,-0.0194,-0.0199,-0.0228,-0.0264,-0.0267,-0.0327,-0.0341,-0.0356,-0.0392,-0.0402,-0.0399,-0.0444,-0.0443,-0.0363,-0.0352,-0.0343,-0.0299,-0.0445,0,0,0,0,0,-0.0014,-0.0025,-0.0076,-0.0083,-0.0096,-0.0145,-0.0163,-0.019,-0.023,-0.0247,-0.0291,-0.0329,-0.0354,-0.0368,-0.0404,-0.041,-0.044,-0.0392,-0.0382,-0.0374,-0.0346,-0.0366,-0.0355,-0.0471,-0.0471,-0.0471,0,0,0.0003,-0.0025,-0.0032,-0.0073,-0.01,-0.0104,-0.0157,-0.0175,-0.0169,-0.0253,-0.0258,-0.0305,-0.0351,-0.0355,-0.0363,-0.038,-0.036,-0.0371,-0.0363,-0.0339,-0.0362,-0.035,-0.034,-0.0469,-0.0469,-0.047,0,0,0.004,0.0007,0.0015,-0.0009,-0.0044,-0.007,-0.0071,-0.0121,-0.0133,-0.0152,-0.02,-0.022,-0.0273,-0.0286,-0.0301,-0.0259,-0.0315,-0.0274,-0.0183,-0.0202,-0.0193,-0.0184,-0.022,-0.0216,-0.0261,-0.0261,-0.0261,0,0.0066,0.0064,0.0014,0.0017,0.0015,-0.0047,-0.0027,-0.005,-0.0103,-0.0095,-0.0136,-0.0182,-0.0228,-0.021,-0.0193,-0.0232,-0.0266,-0.0223,-0.0188,-0.0181,-0.0174,-0.0213,-0.021,-0.0255,-0.0256,-0.0256,-0.0257,0,0.0107,0.0107,0.0112,0.0101,0.0094,0.0096,0.0063,0.0056,0.0032,0.0015,0.0015,-0.0052,-0.0073,-0.0087,-0.0128,-0.0093,-0.0141,-0.0181,-0.0214,-0.0156,-0.0201,-0.0199,-0.0247,-0.0249,-0.0251,-0.0252,0,0,0.0163,0.0147,0.0149,0.0167,0.0141,0.0143,0.0161,0.017,0.0197,0.0149,0.0181,0.0143,0.0104,0.0086,0.0028,0.0021,0.0029,-0.0048,-0.0052,-0.0076,-0.0029,-0.0058,-0.0061,-0.0013,-0.0011,-0.001,-0.0084,0,0.0216,0.0248,0.0229,0.0277,0.0296,0.0263,0.0285,0.0286,0.0279,0.0287,0.0244,0.0237,0.017,0.0154,0.0141,0.0049,0.004,0.0052,-0.0088,-0.0091,-0.0117,-0.0056,-0.005,-0.0114,-0.0083,-0.0083,-0.0083,0,0.0265,0.0284,0.0335,0.0371,0.0378,0.0398,0.044,0.0454,0.0454,0.0448,0.0441,0.0382,0.0362,0.0286,0.0195,0.0199,0.011,0.004,0.0034,-0.0021,-0.0115,-0.0166,-0.0113,-0.0278,-0.0081,-0.0082,-0.0082,0,0.0327,0.0364,0.0415,0.042,0.0442,0.0473,0.0492,0.0508,0.0542,0.0548,0.0559,0.0515,0.0479,0.038,0.0231,0.0208,0.0121,0.0058,-0.0046,-0.0051,-0.0083,-0.0092,-0.0193,0.0016,0.0016,0.0016,0.0016,0,0.0383,0.0424,0.0446,0.0467,0.0546,0.0539,0.0616,0.063,0.0656,0.0711,0.0641,0.0657,0.0502,0.0419,0.0278,0.0129,0.0151,-0.0005,-0.0056,-0.0049,-0.0053,-0.023,-0.032,0.0013,0.0014,0.0015,0.0015,0,0.0428,0.0435,0.0502,0.0547,0.0569,0.0624,0.069,0.0741,0.0753,0.0816,0.0816,0.0766,0.0653,0.0488,0.0321,0.0191,-0.0049,-0.0014,0.0001,-0.0046,-0.0302,-0.0385,-0.0519,-0.0605,-0.0141,-0.0142,-0.0143,0,0.045,0.0482,0.0559,0.0606,0.0628,0.07,0.0747,0.0787,0.0848,0.0886,0.0922,0.0838,0.0797,0.054,0.0296,0.0057,-0.0089,-0.0089,-0.012,-0.0287,-0.0419,-0.0476,-0.0543,-0.0137,-0.0137,-0.0138,-0.0138,0,0.0501,0.0522,0.0575,0.0664,0.0731,0.0813,0.0888,0.0948,0.0995,0.1044,0.1089,0.106,0.0815,0.0585,0.0264,0.0094,-0.0205,-0.0109,-0.028,-0.0402,-0.0471,-0.0588,-0.0138,-0.0143,-0.0142,-0.0142,-0.0142,-0.0142,0.0539,0.0587,0.0647,0.0735,0.0814,0.091,0.0981,0.1063,0.116,0.1248,0.1216,0.1221,0.0891,0.0449,0.0177,-0.0276,-0.0279,-0.0406,-0.049,-0.0529,-0.061,-0.0168,-0.0233,-0.0233,-0.0233,-0.0233,-0.0233,0,0.0582,0.0631,0.0714,0.0816,0.0899,0.0935,0.1063,0.1136,0.1252,0.1355,0.1395,0.1274,0.0835,0.0404,-0.0208,-0.0566,-0.0702,-0.0762,-0.0845,-0.0895,-0.05,-0.0498,-0.0624,-0.0624,-0.0624,-0.0624,-0.0624,-0.0623,0.0609,0.0683,0.0723,0.086,0.0932,0.1049,0.1125,0.1247,0.1355,0.1492,0.1549,0.1555,0.1277,0.0107,-0.0709,-0.0917,-0.116,-0.1221,-0.1359,-0.1099,-0.1072,-0.1047,-0.1066,-0.1309,-0.131,-0.1709,-0.1713,-0.1716]}],[{"header":{"parameterUnit":"m.s-1","parameterCategory":2,"la1":30.2991,"la2":30.254,"lo1":-89.0895,"lo2":-89.0444,"dy":0.0017,"dx":0.0017,"nx":28,"ny":28,"refTime":"2024-02-12T03:00:00:Z","depth":"2","parameterNumber":2,"parameterNumberName":"U-component_of_CURRENTS"},"data":[0,0,0,0,0,0,0,0,0,0,0,0,0,0,0,0,0,0,0,0,0,0,0,0,0,0,0,0,0,0,0,0,0,0,0,0,0,0,0,0,0,0,0,0,0,0,0,0,0,0,0,0,0,0,0,0,0,0,0.165,0.1651,0,0.1708,0.1709,0.1709,0.1698,0.1697,0.1697,0.1696,0.1698,0.1699,0.17,0,0,0,0,0,0,0,0,0,0,0,0,0,0.1557,0.1558,0.165,0.1651,0.1652,0.1708,0.1709,0.1709,0.1699,0.1697,0.1696,0.1695,0.1698,0.1699,0.17,0,0,0,0,0,0,0,0,0,0,0,0,0,0.1603,0.1559,0.165,0.1654,0.1655,0.1708,0.1709,0.1709,0.1699,0.1697,0.1696,0.1695,0.1698,0.1699,0.17,0.1738,0,0,0.1705,0.1705,0,0,0,0,0,0,0,0,0.1601,0.1607,0.1652,0.1654,0.1655,0.1695,0.1677,0.1717,0.1699,0.1681,0.1696,0.1694,0.1694,0.1695,0.1709,0.1738,0.1738,0.1705,0.1706,0.1706,0.1707,0,0,0,0,0,0,0,0.1598,0.1604,0.1672,0.1653,0.1655,0.1662,0.1666,0.1685,0.1693,0.1683,0.1682,0.169,0.1694,0.1708,0.1709,0.1738,0.1705,0.1706,0.1707,0.1708,0.1797,0.1798,0,0,0,0,0,0,0.1593,0.1602,0.167,0.1674,0.1625,0.1664,0.167,0.1683,0.1694,0.1695,0.1692,0.169,0.1706,0.1707,0.1709,0.1745,0.1706,0.1708,0.1709,0.1795,0.1797,0.1798,0,0,0,0,0,0,0.1591,0.1599,0.1668,0.1639,0.1648,0.1667,0.1683,0.1685,0.1709,0.1702,0.1701,0.1714,0.1705,0.1707,0.1733,0.1745,0.1708,0.171,0.1793,0.1796,0.1798,0.1822,0,0,0,0,0,0,0.1588,0.1598,0.1611,0.1639,0.165,0.1703,0.1684,0.1687,0.1716,0.1714,0.1721,0.1719,0.1704,0.1731,0.1734,0.1746,0.1711,0.1791,0.1794,0.1797,0.1819,0.1825,0.183,0,0,0,0,0,0.1584,0.1606,0.1611,0.162,0.1666,0.1704,0.1711,0.1718,0.1718,0.1734,0.1739,0.1719,0.175,0.1734,0.1737,0.1749,0.179,0.1793,0.1797,0.1817,0.1824,0.1829,0,0,0,0,0,0,0.1572,0.1608,0.1614,0.1645,0.1674,0.1702,0.1721,0.1734,0.1754,0.1749,0.1744,0.1743,0.1765,0.1767,0.1748,0.1786,0.1766,0.177,0.178,0.1787,0.1792,0.1819,0.1712,0,0,0,0,0,0.1578,0.1603,0.1636,0.1663,0.1678,0.1706,0.1725,0.1732,0.1752,0.1761,0.1764,0.1772,0.1785,0.1792,0.1798,0.183,0.1852,0.1841,0.1846,0.185,0.1877,0.1923,0.1935,0.181,0.181,0.1809,0,0,0.1582,0.1605,0.162,0.1663,0.1685,0.1709,0.1714,0.1745,0.1764,0.1758,0.1783,0.1789,0.1798,0.1819,0.183,0.1821,0.1897,0.1854,0.1857,0.1883,0.1928,0.194,0.1951,0.1812,0.1811,0.1811,0,0,0.1594,0.1623,0.1642,0.1668,0.1703,0.1723,0.1737,0.177,0.1782,0.1813,0.181,0.1836,0.1851,0.1864,0.1872,0.192,0.192,0.1915,0.1965,0.2008,0.2019,0.2029,0.2067,0.208,0.1919,0.1919,0.1919,0,0.1593,0.1625,0.1655,0.1677,0.1699,0.1731,0.1753,0.1779,0.1813,0.1836,0.1818,0.1878,0.1875,0.1927,0.1937,0.1931,0.1958,0.1933,0.2015,0.2025,0.2034,0.2071,0.2085,0.1921,0.1921,0.1921,0.192,0,0.1612,0.1641,0.1657,0.1693,0.1722,0.1751,0.1784,0.1815,0.1834,0.1859,0.1912,0.1925,0.1965,0.1964,0.1964,0.2036,0.2033,0.2011,0.1996,0.2048,0.2084,0.2098,0.1923,0.1923,0.1922,0.1922,0,0,0.16,0.1659,0.1663,0.1686,0.1733,0.1761,0.18,0.1854,0.19,0.1924,0.1987,0.2014,0.2038,0.2054,0.2063,0.2106,0.2184,0.2096,0.2097,0.2129,0.2288,0.2266,0.2279,0.2175,0.2178,0.218,0.2283,0,0.1604,0.1643,0.1675,0.1719,0.1744,0.1788,0.1836,0.1886,0.1927,0.1993,0.203,0.2086,0.2067,0.2099,0.214,0.2178,0.2225,0.2159,0.2238,0.2241,0.2211,0.2296,0.2135,0.2212,0.2297,0.2299,0.2301,0,0.1604,0.1635,0.1672,0.1746,0.1764,0.1799,0.1886,0.1934,0.2028,0.2066,0.213,0.216,0.2243,0.2211,0.2312,0.2272,0.2295,0.2315,0.2319,0.2307,0.2247,0.2176,0.2234,0.2324,0.2322,0.2321,0.2319,0,0.1572,0.1635,0.1667,0.1687,0.1771,0.1808,0.1866,0.1956,0.2006,0.2126,0.217,0.2263,0.2315,0.2367,0.2399,0.2369,0.2504,0.2455,0.2459,0.2457,0.2343,0.2326,0.2538,0.2538,0.2538,0.2537,0.2537,0,0.1562,0.1588,0.1659,0.1676,0.1738,0.1806,0.188,0.1958,0.2064,0.2134,0.2212,0.228,0.2359,0.2425,0.2448,0.2508,0.254,0.2505,0.2498,0.2346,0.2329,0.244,0.2427,0.2541,0.254,0.254,0.2539,0,0.1518,0.1562,0.1601,0.1688,0.1719,0.1765,0.1871,0.1929,0.2043,0.2137,0.2178,0.2311,0.2418,0.2478,0.2577,0.2567,0.2625,0.263,0.245,0.242,0.2537,0.2524,0.2664,0.2665,0.2665,0.2665,0.2666,0,0.1498,0.1512,0.1588,0.1614,0.1654,0.1726,0.1781,0.1905,0.1968,0.2143,0.2191,0.2332,0.2413,0.2559,0.2602,0.2667,0.2663,0.2529,0.2446,0.258,0.2558,0.2545,0.2532,0.2298,0.2295,0.2293,0.2291,0,0.1457,0.148,0.1512,0.1565,0.1617,0.1668,0.176,0.1798,0.1952,0.2038,0.217,0.2255,0.2425,0.2445,0.2542,0.2543,0.2509,0.2486,0.2691,0.2291,0.2243,0.2218,0.2216,0.2271,0.2273,0.2274,0.2276,0.2276,0.1418,0.1426,0.1468,0.1515,0.1566,0.1611,0.1631,0.1728,0.1813,0.1942,0.2073,0.2163,0.2263,0.235,0.2318,0.231,0.2468,0.236,0.2364,0.237,0.231,0.2265,0.2286,0.2288,0.229,0.2291,0.2293,0,0.1367,0.1387,0.1422,0.1465,0.1484,0.1544,0.1615,0.1624,0.1687,0.1845,0.1946,0.1886,0.1957,0.2038,0.2022,0.206,0.1995,0.1961,0.1858,0.1884,0.1905,0.1814,0.1662,0.166,0.1657,0.1654,0,0,0.1341,0.1346,0.1365,0.1374,0.1405,0.1412,0.1433,0.1467,0.156,0.1612,0.1677,0.1881,0.201,0.1799,0.1809,0.173,0.1773,0.1667,0.219,0.2096,0.2112,0.2176,0.2072,0,0,0,0,0]},{"header":{"parameterUnit":"m.s-1","parameterCategory":2,"la1":30.2991,"la2":30.254,"lo1":-89.0895,"lo2":-89.0444,"dy":0.0017,"dx":0.0017,"nx":28,"ny":28,"refTime":"2024-02-12T03:00:00:Z","depth":"2","parameterNumber":3,"parameterNumberName":"V-component_of_CURRENTS"},"data":[0,0,0,0,0,0,0,0,0,0,0,0,0,0,0,0,0,0,0,0,0,0,0,0,0,0,0,0,0,0,0,0,0,0,0,0,0,0,0,0,0,0,0,0,0,0,0,0,0,0,0,0,0,0,0,0,0,0,-0.0213,-0.0214,0,-0.0309,-0.031,-0.0312,-0.0367,-0.0367,-0.0367,-0.0367,-0.0481,-0.0484,-0.0487,0,0,0,0,0,0,0,0,0,0,0,0,0,-0.0146,-0.0147,-0.0213,-0.0214,-0.0215,-0.0309,-0.031,-0.0312,-0.0367,-0.0367,-0.0367,-0.0367,-0.048,-0.0484,-0.0487,0,0,0,0,0,0,0,0,0,0,0,0,0,-0.0204,-0.0147,-0.0213,-0.0252,-0.0257,-0.0309,-0.031,-0.0312,-0.0367,-0.0367,-0.0367,-0.0367,-0.0479,-0.0484,-0.0488,-0.0515,0,0,-0.0502,-0.0504,0,0,0,0,0,0,0,0,-0.02,-0.0206,-0.0245,-0.025,-0.0255,-0.0325,-0.0329,-0.038,-0.0367,-0.0327,-0.0367,-0.0367,-0.0429,-0.0438,-0.0458,-0.052,-0.0525,-0.0502,-0.0505,-0.0507,-0.0508,0,0,0,0,0,0,0,-0.0196,-0.0203,-0.0253,-0.0246,-0.0252,-0.0289,-0.0297,-0.0339,-0.0378,-0.0331,-0.0334,-0.0342,-0.0432,-0.0454,-0.0461,-0.0526,-0.0502,-0.0506,-0.0509,-0.0511,-0.057,-0.0569,0,0,0,0,0,0,-0.0177,-0.0199,-0.025,-0.0255,-0.0225,-0.029,-0.0299,-0.0303,-0.0378,-0.0388,-0.0342,-0.0344,-0.0446,-0.0456,-0.0466,-0.0473,-0.0507,-0.0511,-0.0514,-0.0571,-0.057,-0.0569,0,0,0,0,0,0,-0.0175,-0.018,-0.0246,-0.0228,-0.0239,-0.029,-0.0296,-0.0305,-0.0328,-0.0386,-0.0397,-0.0354,-0.0446,-0.0459,-0.0493,-0.0478,-0.0513,-0.0517,-0.0572,-0.0571,-0.0569,-0.0505,0,0,0,0,0,0,-0.0173,-0.0179,-0.0177,-0.0226,-0.0239,-0.0263,-0.0296,-0.0307,-0.0332,-0.0336,-0.04,-0.0411,-0.0447,-0.0486,-0.0497,-0.0485,-0.0521,-0.0574,-0.0572,-0.057,-0.0509,-0.0502,-0.0495,0,0,0,0,0,-0.017,-0.0163,-0.0177,-0.0183,-0.0234,-0.0262,-0.0272,-0.0311,-0.0332,-0.0334,-0.0376,-0.0409,-0.048,-0.0489,-0.0503,-0.0492,-0.0575,-0.0572,-0.057,-0.0512,-0.0503,-0.0496,0,0,0,0,0,0,-0.0132,-0.0169,-0.0185,-0.0189,-0.0218,-0.0271,-0.0277,-0.0308,-0.0346,-0.035,-0.0408,-0.0421,-0.0442,-0.0473,-0.0482,-0.0499,-0.0528,-0.0528,-0.0479,-0.0471,-0.0464,-0.045,-0.0524,0,0,0,0,0,-0.0122,-0.0126,-0.0167,-0.0169,-0.018,-0.023,-0.0248,-0.0272,-0.0312,-0.0329,-0.0372,-0.0411,-0.0443,-0.0462,-0.0493,-0.0514,-0.0539,-0.0509,-0.0502,-0.0497,-0.0492,-0.0515,-0.0511,-0.056,-0.056,-0.056,0,0,-0.0109,-0.0128,-0.0132,-0.0161,-0.0188,-0.0198,-0.0241,-0.0259,-0.0268,-0.0335,-0.0358,-0.0394,-0.0442,-0.0457,-0.0468,-0.0484,-0.0494,-0.0493,-0.0488,-0.0487,-0.0512,-0.0508,-0.0504,-0.0559,-0.0559,-0.0559,0,0,-0.0082,-0.0099,-0.0095,-0.0114,-0.0144,-0.0171,-0.0173,-0.0219,-0.0238,-0.0265,-0.0309,-0.0335,-0.0388,-0.0415,-0.0438,-0.0414,-0.0458,-0.0418,-0.0379,-0.0401,-0.0397,-0.0395,-0.0414,-0.0413,-0.0415,-0.0415,-0.0414,0,-0.0064,-0.0066,-0.0097,-0.0098,-0.0108,-0.0154,-0.0151,-0.0178,-0.0228,-0.0237,-0.0257,-0.0324,-0.0367,-0.0389,-0.0377,-0.0401,-0.0419,-0.0408,-0.0393,-0.0391,-0.0389,-0.041,-0.041,-0.0411,-0.0412,-0.0412,-0.0412,0,-0.0038,-0.004,-0.0036,-0.0052,-0.0063,-0.0066,-0.0102,-0.0115,-0.0143,-0.017,-0.0194,-0.0251,-0.0286,-0.0301,-0.0338,-0.0341,-0.036,-0.0383,-0.0415,-0.038,-0.0404,-0.0405,-0.0406,-0.0408,-0.0409,-0.0409,0,0,0.0005,-0.0014,-0.0013,-0.0011,-0.0038,-0.0043,-0.005,-0.0067,-0.0064,-0.011,-0.0111,-0.0168,-0.0194,-0.022,-0.0265,-0.029,-0.0297,-0.0326,-0.0329,-0.0347,-0.0342,-0.0349,-0.0352,-0.0319,-0.0319,-0.0319,-0.0362,0,0.0035,0.0048,0.0029,0.0044,0.0048,0.0014,0.0017,-0.0003,-0.0024,-0.0033,-0.009,-0.0106,-0.0164,-0.0173,-0.0208,-0.0274,-0.0299,-0.0283,-0.0371,-0.0374,-0.0386,-0.0353,-0.0322,-0.0357,-0.0363,-0.0364,-0.0364,0,0.0066,0.0071,0.0092,0.0095,0.0096,0.0103,0.0107,0.0104,0.0079,0.0064,0.0035,-0.001,-0.0055,-0.0105,-0.02,-0.0186,-0.0254,-0.031,-0.0314,-0.0344,-0.0383,-0.0394,-0.036,-0.0367,-0.0367,-0.0367,-0.0366,0,0.0111,0.0116,0.0137,0.0136,0.0132,0.0145,0.015,0.0139,0.0152,0.0133,0.014,0.0074,0.0052,-0.0043,-0.0162,-0.0177,-0.0267,-0.0303,-0.0375,-0.0376,-0.0379,-0.038,-0.0364,-0.0364,-0.0364,-0.0364,-0.0364,0,0.0147,0.0163,0.0163,0.0174,0.0215,0.0199,0.0241,0.0236,0.0244,0.0278,0.0202,0.0208,0.0067,-0.0007,-0.0126,-0.0247,-0.0238,-0.0359,-0.0384,-0.0354,-0.0353,-0.0389,-0.0391,-0.0366,-0.0365,-0.0365,-0.0365,0,0.0186,0.0181,0.0208,0.0222,0.0235,0.0267,0.0305,0.0338,0.0337,0.0378,0.0379,0.0315,0.0224,0.0074,-0.0075,-0.0187,-0.0312,-0.036,-0.0313,-0.0331,-0.0418,-0.0416,-0.044,-0.0441,-0.0441,-0.0442,-0.0442,0,0.0204,0.0222,0.025,0.0279,0.0289,0.0333,0.0371,0.0386,0.0429,0.0447,0.0478,0.0405,0.0366,0.0141,-0.0066,-0.0264,-0.0302,-0.0366,-0.0394,-0.0401,-0.0424,-0.0421,-0.0419,-0.0373,-0.0372,-0.0372,-0.0372,0,0.0244,0.0253,0.0276,0.0335,0.0381,0.0431,0.0491,0.0538,0.0569,0.0605,0.0642,0.0613,0.0406,0.0216,-0.0056,-0.0193,-0.0334,-0.0368,-0.0382,-0.0356,-0.0341,-0.0362,-0.0361,-0.037,-0.037,-0.037,-0.037,-0.037,0.0276,0.0303,0.0339,0.0397,0.0453,0.053,0.0589,0.0656,0.0734,0.0811,0.0773,0.0757,0.0522,0.0193,-0.0062,-0.032,-0.032,-0.0405,-0.0404,-0.0404,-0.0387,-0.0372,-0.0404,-0.0405,-0.0405,-0.0405,-0.0405,0,0.0316,0.0348,0.0402,0.0471,0.0542,0.0565,0.0672,0.074,0.0847,0.0916,0.0951,0.0764,0.0533,0.0262,-0.012,-0.036,-0.038,-0.0425,-0.0401,-0.04,-0.0401,-0.0383,-0.04,-0.0401,-0.0401,-0.0402,0,0,0.0339,0.0394,0.0421,0.0537,0.0594,0.0704,0.0773,0.0876,0.0956,0.1035,0.1047,0.0998,0.0652,0.0382,0.0047,-0.0175,-0.0229,-0.0214,-0.0191,-0.0121,-0.0118,-0.036,-0.0329,0,0,0,0,0]}],[{"header":{"parameterUnit":"m.s-1","parameterCategory":2,"la1":30.2991,"la2":30.254,"lo1":-89.0895,"lo2":-89.0444,"dy":0.0017,"dx":0.0017,"nx":28,"ny":28,"refTime":"2024-02-12T03:00:00:Z","depth":"4","parameterNumber":2,"parameterNumberName":"U-component_of_CURRENTS"},"data":[0,0,0,0,0,0,0,0,0,0,0,0,0,0,0,0,0,0,0,0,0,0,0,0,0,0,0,0,0,0,0,0,0,0,0,0,0,0,0,0,0,0,0,0,0,0,0,0,0,0,0,0,0,0,0,0,0,0,0.1021,0.1021,0,0.1052,0.1052,0.1052,0.1079,0.1079,0.108,0.108,0.1122,0.1123,0.1123,0,0,0,0,0,0,0,0,0,0,0,0,0,0.0958,0.0959,0.1021,0.1021,0.1022,0.1052,0.1052,0.1052,0.1079,0.1079,0.108,0.108,0.1122,0.1123,0.1123,0,0,0,0,0,0,0,0,0,0,0,0,0,0.0985,0.096,0.1021,0.104,0.1042,0.1051,0.1052,0.1052,0.1079,0.1079,0.108,0.1081,0.1121,0.1122,0.1124,0.1117,0,0,0.1127,0.1127,0,0,0,0,0,0,0,0,0.0984,0.0988,0.1036,0.1039,0.1041,0.1063,0.1045,0.1075,0.1079,0.1063,0.108,0.1081,0.1104,0.1106,0.1108,0.1119,0.112,0.1127,0.1127,0.1128,0.1128,0,0,0,0,0,0,0,0.0982,0.0986,0.1031,0.1037,0.104,0.1038,0.1043,0.1051,0.1078,0.1065,0.1067,0.1073,0.1105,0.1107,0.111,0.1121,0.1127,0.1128,0.1128,0.1129,0.1243,0.1245,0,0,0,0,0,0,0.0982,0.0985,0.103,0.1032,0.1015,0.1039,0.1044,0.1054,0.1078,0.1083,0.1072,0.1074,0.1105,0.1108,0.1111,0.119,0.1128,0.1129,0.1129,0.1241,0.1244,0.1246,0,0,0,0,0,0,0.0981,0.0986,0.1029,0.101,0.1016,0.1039,0.1051,0.1055,0.108,0.1084,0.1089,0.1096,0.1106,0.111,0.1154,0.1189,0.1129,0.113,0.1238,0.1242,0.1245,0.1293,0,0,0,0,0,0,0.0979,0.0985,0.1002,0.101,0.1017,0.1058,0.105,0.1055,0.1081,0.1085,0.1106,0.1109,0.1107,0.1153,0.1155,0.1189,0.1131,0.1235,0.124,0.1244,0.1288,0.1297,0.1305,0,0,0,0,0,0.0977,0.0996,0.1003,0.1009,0.1036,0.1059,0.1063,0.1079,0.1082,0.1102,0.1124,0.1109,0.1184,0.1155,0.1158,0.1192,0.1233,0.1238,0.1244,0.1284,0.1295,0.1305,0,0,0,0,0,0,0.0976,0.1,0.1009,0.1035,0.1056,0.1065,0.1087,0.1092,0.1122,0.1135,0.1132,0.1138,0.1193,0.119,0.1159,0.1243,0.1209,0.1215,0.1239,0.125,0.1258,0.124,0.1132,0,0,0,0,0,0.0983,0.1008,0.1026,0.105,0.1065,0.1078,0.1092,0.1106,0.1128,0.1143,0.1161,0.1187,0.1213,0.1229,0.1254,0.129,0.1285,0.1319,0.1328,0.1335,0.1326,0.1351,0.136,0.1264,0.1264,0.1264,0,0,0.0986,0.1006,0.1019,0.1053,0.1071,0.1098,0.109,0.1125,0.1151,0.1142,0.1198,0.1219,0.1232,0.1282,0.1306,0.1285,0.1367,0.1342,0.1348,0.1334,0.1358,0.1367,0.1375,0.1268,0.1267,0.1267,0,0,0.1006,0.103,0.1057,0.1081,0.112,0.1129,0.1145,0.1176,0.1199,0.1247,0.1254,0.1293,0.1335,0.135,0.1359,0.1429,0.1415,0.1451,0.1474,0.15,0.1507,0.1513,0.1538,0.1546,0.1452,0.1452,0.1452,0,0.101,0.1046,0.1069,0.1103,0.1122,0.1146,0.1175,0.1203,0.1248,0.1265,0.1279,0.1347,0.1362,0.1401,0.1434,0.1445,0.1459,0.1428,0.1508,0.1514,0.1519,0.1543,0.1551,0.1455,0.1455,0.1455,0.1454,0,0.1046,0.1081,0.1102,0.1151,0.1176,0.1209,0.1243,0.1282,0.1312,0.1332,0.1394,0.1421,0.1455,0.1478,0.1476,0.1529,0.1529,0.1516,0.1472,0.1531,0.1554,0.1561,0.1459,0.1458,0.1458,0.1457,0,0,0.1032,0.111,0.112,0.1144,0.1204,0.1222,0.1277,0.1317,0.1349,0.1406,0.1442,0.1498,0.1514,0.1526,0.1539,0.1561,0.1622,0.156,0.156,0.1568,0.1689,0.1627,0.1629,0.1628,0.1629,0.163,0.1695,0,0.1052,0.1114,0.115,0.1203,0.123,0.1268,0.1312,0.1356,0.1398,0.1448,0.1479,0.153,0.1533,0.1561,0.1586,0.1617,0.1642,0.1606,0.1644,0.1645,0.1568,0.1635,0.1634,0.17,0.1702,0.1703,0.1704,0,0.1073,0.1109,0.1164,0.122,0.1236,0.1275,0.1332,0.1376,0.1444,0.1482,0.153,0.156,0.1615,0.1606,0.1676,0.1659,0.1678,0.1692,0.1694,0.1617,0.1596,0.1626,0.1717,0.1716,0.1715,0.1714,0.1713,0,0.104,0.1114,0.1154,0.1177,0.1249,0.128,0.1321,0.1388,0.1426,0.1507,0.1546,0.1607,0.1659,0.1687,0.1737,0.1714,0.1806,0.1774,0.1731,0.1727,0.1738,0.173,0.181,0.181,0.181,0.1809,0.1809,0,0.1035,0.1068,0.1147,0.1168,0.121,0.1269,0.1323,0.1374,0.1451,0.1504,0.1566,0.1617,0.1685,0.1744,0.176,0.1783,0.1832,0.1742,0.1741,0.1762,0.1756,0.1744,0.1736,0.1812,0.1811,0.1811,0.181,0,0.0996,0.1053,0.1096,0.1174,0.12,0.1231,0.1318,0.1354,0.1442,0.1514,0.1545,0.165,0.1738,0.1792,0.186,0.1818,0.1838,0.183,0.1871,0.187,0.1731,0.1725,0.177,0.1768,0.1767,0.1766,0.1765,0,0.0982,0.1005,0.1087,0.111,0.1151,0.1208,0.1247,0.1339,0.1379,0.1527,0.1552,0.1675,0.174,0.1779,0.1847,0.1877,0.1855,0.1842,0.1755,0.1733,0.1728,0.1724,0.1719,0.1763,0.1762,0.1762,0.1762,0,0.0942,0.0983,0.1016,0.1066,0.1111,0.115,0.1216,0.1236,0.1354,0.1446,0.1526,0.1581,0.1686,0.1741,0.1791,0.1802,0.1832,0.1826,0.1827,0.1746,0.1724,0.172,0.1717,0.1757,0.1758,0.1758,0.1758,0,0.091,0.092,0.0972,0.1006,0.1058,0.1081,0.1122,0.1179,0.1232,0.1389,0.1425,0.1564,0.1678,0.1707,0.1754,0.1768,0.1727,0.1645,0.1655,0.1661,0.1598,0.1553,0.1539,0,0,0,0,0,0.087,0.0878,0.0906,0.094,0.0989,0.1024,0.1096,0.1142,0.1258,0.128,0.1345,0.1438,0.1526,0.1596,0.159,0.1711,0.1733,0.1696,0.1643,0.173,0.1736,0.1673,0,0,0,0,0,0,0.0843,0.0871,0.0882,0.088,0.0896,0.0943,0.0989,0.1068,0.1077,0.1204,0.1255,0.1358,0.1458,0.1523,0.1567,0.159,0.1527,0.1784,0.178,0.1727,0.1732,0.1737,0.1674,0,0,0,0,0]},{"header":{"parameterUnit":"m.s-1","parameterCategory":2,"la1":30.2991,"la2":30.254,"lo1":-89.0895,"lo2":-89.0444,"dy":0.0017,"dx":0.0017,"nx":28,"ny":28,"refTime":"2024-02-12T03:00:00:Z","depth":"4","parameterNumber":3,"parameterNumberName":"V-component_of_CURRENTS"},"data":[0,0,0,0,0,0,0,0,0,0,0,0,0,0,0,0,0,0,0,0,0,0,0,0,0,0,0,0,0,0,0,0,0,0,0,0,0,0,0,0,0,0,0,0,0,0,0,0,0,0,0,0,0,0,0,0,0,0,-0.0003,-0.0003,0,-0.0023,-0.0024,-0.0024,-0.0042,-0.0042,-0.0043,-0.0043,-0.0077,-0.0078,-0.0078,0,0,0,0,0,0,0,0,0,0,0,0,0,0.0002,0.0002,-0.0003,-0.0003,-0.0004,-0.0023,-0.0024,-0.0024,-0.0042,-0.0042,-0.0043,-0.0043,-0.0077,-0.0078,-0.0078,0,0,0,0,0,0,0,0,0,0,0,0,0,-0.0007,0.0003,-0.0003,-0.0015,-0.0016,-0.0023,-0.0024,-0.0024,-0.0042,-0.0042,-0.0043,-0.0043,-0.0077,-0.0078,-0.0079,-0.0078,0,0,-0.0082,-0.0082,0,0,0,0,0,0,0,0,-0.0006,-0.0007,-0.0013,-0.0014,-0.0016,-0.0031,-0.0034,-0.0043,-0.0042,-0.0032,-0.0043,-0.0043,-0.0063,-0.0065,-0.0068,-0.008,-0.0081,-0.0082,-0.0083,-0.0083,-0.0083,0,0,0,0,0,0,0,-0.0006,-0.0007,-0.0011,-0.0013,-0.0015,-0.0026,-0.0027,-0.0036,-0.0046,-0.0033,-0.0035,-0.0037,-0.0063,-0.0067,-0.0069,-0.0082,-0.0082,-0.0083,-0.0083,-0.0084,-0.0164,-0.0165,0,0,0,0,0,0,-0.0002,-0.0006,-0.0011,-0.0012,-0.0012,-0.0025,-0.0027,-0.0026,-0.0045,-0.0048,-0.0036,-0.0038,-0.0065,-0.0067,-0.007,-0.0105,-0.0083,-0.0084,-0.0085,-0.0162,-0.0164,-0.0166,0,0,0,0,0,0,-0.0002,-0.0002,-0.001,-0.001,-0.0011,-0.0025,-0.0023,-0.0026,-0.0032,-0.0048,-0.0051,-0.0041,-0.0065,-0.0068,-0.0093,-0.0105,-0.0084,-0.0085,-0.016,-0.0163,-0.0165,-0.0154,0,0,0,0,0,0,-0.0001,-0.0002,0.0,-0.0009,-0.0011,-0.0018,-0.0023,-0.0026,-0.0033,-0.0035,-0.0052,-0.0056,-0.0065,-0.0091,-0.0094,-0.0106,-0.0086,-0.0159,-0.0161,-0.0164,-0.0152,-0.0155,-0.0158,0,0,0,0,0,-0.0001,0.0006,0.0,-0.0,-0.0008,-0.0018,-0.002,-0.0031,-0.0033,-0.0037,-0.0057,-0.0055,-0.0111,-0.0093,-0.0095,-0.0109,-0.0157,-0.0161,-0.0164,-0.0151,-0.0155,-0.0158,0,0,0,0,0,0,0.0012,0.0004,-0.0002,0.0003,-0.001,-0.0021,-0.0023,-0.003,-0.0048,-0.005,-0.0065,-0.007,-0.01,-0.011,-0.0089,-0.0145,-0.0138,-0.0142,-0.0127,-0.0131,-0.0134,-0.0121,-0.0087,0,0,0,0,0,0.0016,0.0017,0.0004,0.0007,0.0002,-0.0011,-0.0016,-0.0025,-0.004,-0.0048,-0.0065,-0.0089,-0.0116,-0.0126,-0.015,-0.0169,-0.0177,-0.0186,-0.0189,-0.0191,-0.0186,-0.0218,-0.0222,-0.0177,-0.0177,-0.0176,0,0,0.0023,0.0018,0.002,0.001,0.0001,-0.0008,-0.0015,-0.0023,-0.0036,-0.0049,-0.0073,-0.0097,-0.0125,-0.0156,-0.017,-0.0163,-0.0209,-0.0195,-0.0196,-0.019,-0.0221,-0.0225,-0.0229,-0.0179,-0.0178,-0.0178,0,0,0.0034,0.0033,0.0033,0.0021,0.0006,-0.0004,-0.0007,-0.0026,-0.0039,-0.0064,-0.0086,-0.0117,-0.0149,-0.0175,-0.0191,-0.0224,-0.0226,-0.0239,-0.0235,-0.0266,-0.0269,-0.0272,-0.0282,-0.0286,-0.0237,-0.0237,-0.0237,0,0.0042,0.004,0.003,0.0022,0.0016,-0.0002,-0.0007,-0.0025,-0.0053,-0.0064,-0.0073,-0.0138,-0.0159,-0.0198,-0.0215,-0.0228,-0.0239,-0.0213,-0.0267,-0.027,-0.0273,-0.0283,-0.0288,-0.0237,-0.0237,-0.0237,-0.0237,0,0.0045,0.0042,0.0042,0.0025,0.0016,0.0011,-0.0014,-0.0032,-0.005,-0.0068,-0.0112,-0.015,-0.0184,-0.0206,-0.0217,-0.0257,-0.0256,-0.0266,-0.0249,-0.0276,-0.0286,-0.0291,-0.0236,-0.0236,-0.0237,-0.0237,0,0,0.0068,0.0048,0.0047,0.0044,0.0019,0.0016,-0.001,-0.0033,-0.0041,-0.0087,-0.0104,-0.0165,-0.0182,-0.0203,-0.0231,-0.026,-0.0292,-0.0269,-0.0271,-0.0263,-0.0346,-0.0321,-0.0324,-0.031,-0.0311,-0.0312,-0.034,0,0.0072,0.0065,0.0051,0.0046,0.0043,0.0019,0.0002,-0.0023,-0.0047,-0.0071,-0.0122,-0.0148,-0.0182,-0.0194,-0.0235,-0.0273,-0.0305,-0.0282,-0.0335,-0.0336,-0.0298,-0.0329,-0.0315,-0.0344,-0.0345,-0.0346,-0.0346,0,0.0076,0.0073,0.007,0.0062,0.006,0.0053,0.0035,0.0017,-0.0024,-0.0043,-0.0086,-0.0117,-0.0168,-0.0193,-0.0276,-0.0259,-0.0303,-0.0337,-0.0339,-0.0321,-0.0321,-0.0316,-0.0355,-0.0354,-0.0354,-0.0353,-0.0352,0,0.0098,0.0088,0.0091,0.0086,0.007,0.0066,0.0059,0.0028,0.0025,-0.0019,-0.002,-0.0094,-0.0113,-0.0193,-0.0262,-0.027,-0.0346,-0.0364,-0.0388,-0.0386,-0.04,-0.0397,-0.0431,-0.0431,-0.0431,-0.0431,-0.0431,0,0.0109,0.0112,0.0105,0.0106,0.0116,0.0096,0.0103,0.0081,0.0064,0.0077,0.0005,0.0001,-0.0114,-0.0168,-0.0249,-0.0322,-0.0337,-0.0388,-0.0396,-0.0396,-0.0392,-0.0403,-0.0399,-0.0432,-0.0432,-0.0431,-0.0431,0,0.0128,0.012,0.0128,0.0124,0.0127,0.0135,0.0145,0.0152,0.0131,0.0145,0.0139,0.0077,0.0011,-0.01,-0.0214,-0.0283,-0.0369,-0.0394,-0.0367,-0.0372,-0.0392,-0.0388,-0.0426,-0.0426,-0.0425,-0.0425,-0.0425,0,0.0135,0.0141,0.0151,0.0165,0.0166,0.018,0.0195,0.0184,0.0202,0.0202,0.0217,0.0161,0.011,-0.0021,-0.0157,-0.0313,-0.0342,-0.0388,-0.0418,-0.039,-0.0395,-0.0391,-0.0388,-0.0424,-0.0424,-0.0424,-0.0424,0,0.0153,0.0158,0.0168,0.02,0.0222,0.025,0.0275,0.0297,0.0302,0.0286,0.0303,0.0227,0.0153,0.0016,-0.0104,-0.0223,-0.0362,-0.0384,-0.0386,-0.0415,-0.0388,-0.0392,-0.0389,-0.0422,-0.0422,-0.0422,-0.0422,0,0.0171,0.0185,0.0205,0.0235,0.0271,0.0317,0.0322,0.0355,0.0371,0.0374,0.0385,0.0292,0.0233,0.0064,-0.0047,-0.0161,-0.0203,-0.025,-0.0261,-0.0264,-0.0219,-0.0162,-0.0133,0,0,0,0,0,0.0187,0.021,0.0241,0.0279,0.0321,0.0346,0.0379,0.0382,0.0394,0.0424,0.0409,0.0345,0.0192,0.0115,0.0008,-0.0068,-0.0245,-0.0201,-0.0309,-0.0414,-0.0415,-0.039,0,0,0,0,0,0,0.0198,0.0228,0.0245,0.0316,0.0356,0.0407,0.0434,0.044,0.0451,0.0448,0.037,0.0325,0.0168,0.027,0.0015,-0.0025,-0.0108,-0.028,-0.0283,-0.0413,-0.0414,-0.0416,-0.039,0,0,0,0,0]}]]